Location: Newark
(40.9833°N, 0.0333°W)
Time: 17:38:49
(UTC+00:00)

Vanguard 2 Rocket - Pass Details

Date: 30 October 2020
Orbit: 554 x 3326 km, 32.9° (Epoch: 24 November)

Event Time Altitude Azimuth Distance (km) Brightness Sun altitude
Rises 16:29:12 0° 217° (SW) 3,018 10.8 4.3°
Reaches altitude 10° 16:32:51 10° 188° (S) 1,892 9.0 3.6°
Maximum altitude 16:34:45 13° 160° (SSE) 1,655 8.3 3.3°
Drops below altitude 10° 16:36:36 10° 132° (SE) 1,819 8.2 3.0°
Sets 16:39:56 0° 102° (ESE) 2,791 8.9 2.4°
